Weather in Washington

United States     38°39′08″N   87°10′15″W
В апреле 2022 года жителям России запретили посещать сайт meteo.paraplan.net по решению Генеральной прокуратуры. Аудитория сайта уменьшилась в 10 раз. Владельцы сайта не видят смысла в поддержке погодного сервера в таких условиях. Сайт будет закрыт в октябре.
temp.,
°C
wind,
m/s
gust,
m/s
humid.,
%
clouds,
%
prec.,
mm/h
press.,
hPa
HPBL,
m
4 october, tue
tue423:00+11ene46420 0.0 102470
02:00+9ene33490 0.0 102436
05:00+8ene33560 0.0 102326
08:00+7ne33620 0.0 102424
11:00+15ene33480 0.0 1024383
14:00+20ne23310 0.0 1022992
17:00+22ne23260 0.0 10201051
20:00+15nne11320 0.0 102011
5 october, wed
wed523:00+12ene23383 0.0 102115
02:00+11e224310 0.0 102110
05:00+10e114876 0.0 102110
08:00+9ese11515 0.0 102110
11:00+17sse223965 0.0 1021296
14:00+22sw222983 0.0 1020890
17:00+23wsw2230100 0.0 1018996
20:00+17s11423 0.0 101811
6 october, thu
thu623:00+15sse33485 0.0 101820
02:00+14s454949 0.0 101767
05:00+13ssw1154100 0.0 101812
08:00+13s4954100 0.0 1017152
11:00+19sw68356 0.0 1017508
14:00+24w45340 0.0 1016930
17:00+26w57378 0.0 10152005
20:00+21w3553100 0.0 101678
7 october, fri
fri723:00+18nw36570 0.0 101799
02:00+14n612663 0.0 1018288
05:00+12n712836 0.0 1021508
08:00+11n6127310 0.0 1024675
11:00+13nne79535 0.0 10261074
14:00+17nne673626 0.0 10251757
17:00+17n67334 0.0 10251892
20:00+11n48470 0.0 1026139
8 october, sat
sat823:00+8ne37610 0.0 1028121
02:00+6nne35740 0.0 102883
05:00+4ne22830 0.0 102819
08:00+3e11860 0.0 102910
11:00+11nw11540 0.0 1030461
14:00+15w23350 0.0 10271328
17:00+17w34310 0.0 10241501
20:00+11wsw22440 0.0 102413